Wetterdaten: Mittwoch, 09.12.2015
Datum Zeit Auen-Temp. Temp gefhlt Luftfeuchte Luftdruck Regen Wind Richtung Richtung Taupunkt Windben
09.12.2015 00:00 0,6 C 0,5 C 80 % 1032,3 hPa 0,0 mm 0,8 km/h (0 Bft) S-SO 157 -2,4 C 0,0 km/h (0 Bft)
09.12.2015 00:05 0,5 C 0,5 C 80 % 1032,3 hPa 0,0 mm 0,5 km/h (0 Bft) SO 135 -2,5 C 0,0 km/h (0 Bft)
09.12.2015 00:06 0,1 C 0,0 C 80 % 1032,3 hPa 0,0 mm 0,3 km/h (0 Bft) O 90 -2,9 C 0,0 km/h (0 Bft)
09.12.2015 00:08 0,1 C 0,0 C 80 % 1032,3 hPa 0,0 mm 0,3 km/h (0 Bft) O 90 -2,9 C 0,0 km/h (0 Bft)
09.12.2015 00:10 0,1 C 0,0 C 80 % 1032,3 hPa 0,0 mm 0,3 km/h (0 Bft) O 90 -2,9 C 0,0 km/h (0 Bft)
09.12.2015 00:15 0,3 C 0,1 C 81 % 1032,4 hPa 0,0 mm 0,0 km/h (0 Bft) S 180 -2,6 C 0,0 km/h (0 Bft)
09.12.2015 00:20 1,2 C 1,3 C 79 % 1032,4 hPa 0,0 mm 0,8 km/h (0 Bft) S-SO 157 -2,0 C 2,8 km/h (1 Bft)
09.12.2015 00:25 1,8 C 1,7 C 79 % 1032,4 hPa 0,0 mm 1,0 km/h (0 Bft) S 180 -1,4 C 2,6 km/h (1 Bft)
09.12.2015 00:30 0,9 C 0,9 C 82 % 1032,4 hPa 0,0 mm 0,5 km/h (0 Bft) W 270 -1,8 C 0,0 km/h (0 Bft)
09.12.2015 00:35 0,6 C 0,5 C 82 % 1032,2 hPa 0,0 mm 0,3 km/h (0 Bft) NO 45 -2,1 C 2,8 km/h (1 Bft)
09.12.2015 00:40 0,5 C 0,3 C 83 % 1032,2 hPa 0,0 mm 0,0 km/h (0 Bft) O-NO 67 -2,0 C 0,0 km/h (0 Bft)
09.12.2015 00:45 0,6 C 0,3 C 83 % 1032,2 hPa 0,0 mm 0,0 km/h (0 Bft) NO 45 -1,9 C 0,0 km/h (0 Bft)
09.12.2015 00:50 0,2 C -0,1 C 82 % 1032,2 hPa 0,0 mm 0,0 km/h (0 Bft) NO 45 -2,5 C 0,0 km/h (0 Bft)
09.12.2015 00:55 0,2 C -0,1 C 82 % 1032,0 hPa 0,0 mm 0,0 km/h (0 Bft) O-NO 67 -2,5 C 0,0 km/h (0 Bft)
09.12.2015 01:00 -0,1 C -0,4 C 82 % 1032,0 hPa 0,0 mm 0,0 km/h (0 Bft) O-SO 112 -2,8 C 0,0 km/h (0 Bft)
09.12.2015 01:05 0,1 C -0,4 C 83 % 1032,0 hPa 0,0 mm 0,0 km/h (0 Bft) O-SO 112 -2,4 C 0,0 km/h (0 Bft)
09.12.2015 01:10 -0,3 C -0,7 C 83 % 1032,0 hPa 0,0 mm 0,0 km/h (0 Bft) O-SO 112 -2,8 C 0,0 km/h (0 Bft)
09.12.2015 01:15 -0,3 C -0,7 C 83 % 1032,3 hPa 0,0 mm 0,0 km/h (0 Bft) NO 45 -2,8 C 0,0 km/h (0 Bft)
09.12.2015 01:20 -0,3 C -0,7 C 83 % 1032,3 hPa 0,0 mm 0,0 km/h (0 Bft) O 90 -2,8 C 0,0 km/h (0 Bft)
09.12.2015 01:25 -0,5 C -0,9 C 83 % 1032,3 hPa 0,0 mm 0,0 km/h (0 Bft) O-NO 67 -3,0 C 0,0 km/h (0 Bft)
09.12.2015 01:30 -0,3 C -0,8 C 84 % 1032,3 hPa 0,0 mm 0,0 km/h (0 Bft) O 90 -2,7 C 0,0 km/h (0 Bft)
09.12.2015 01:35 -0,3 C -0,7 C 84 % 1032,3 hPa 0,0 mm 0,0 km/h (0 Bft) O 90 -2,7 C 0,0 km/h (0 Bft)
09.12.2015 01:40 -0,6 C -0,9 C 84 % 1032,3 hPa 0,0 mm 0,0 km/h (0 Bft) O-NO 67 -3,0 C 0,0 km/h (0 Bft)
09.12.2015 01:45 -0,7 C -1,0 C 84 % 1032,3 hPa 0,0 mm 0,0 km/h (0 Bft) O-NO 67 -3,1 C 0,0 km/h (0 Bft)
09.12.2015 01:50 -0,7 C -1,0 C 84 % 1032,3 hPa 0,0 mm 0,0 km/h (0 Bft) O-SO 112 -3,1 C 0,0 km/h (0 Bft)
09.12.2015 01:55 -0,3 C -0,6 C 81 % 1032,2 hPa 0,0 mm 0,0 km/h (0 Bft) O-SO 112 -3,2 C 0,0 km/h (0 Bft)
09.12.2015 02:00 -0,1 C -0,6 C 86 % 1032,2 hPa 0,0 mm 0,0 km/h (0 Bft) N-NO 22 -2,2 C 3,9 km/h (1 Bft)
09.12.2015 02:05 -0,3 C -0,7 C 86 % 1032,2 hPa 0,0 mm 0,0 km/h (0 Bft) O-SO 112 -2,3 C 0,0 km/h (0 Bft)
09.12.2015 02:10 -0,1 C -0,5 C 86 % 1032,2 hPa 0,0 mm 0,3 km/h (0 Bft) S 180 -2,2 C 2,8 km/h (1 Bft)
09.12.2015 02:15 0,0 C -0,3 C 87 % 1032,2 hPa 0,0 mm 0,8 km/h (0 Bft) O-SO 112 -1,9 C 0,0 km/h (0 Bft)
09.12.2015 02:20 -0,5 C -0,6 C 86 % 1032,2 hPa 0,0 mm 0,8 km/h (0 Bft) O-SO 112 -2,5 C 0,0 km/h (0 Bft)
09.12.2015 02:25 0,0 C -0,3 C 82 % 1032,2 hPa 0,0 mm 0,0 km/h (0 Bft) SO 135 -2,7 C 0,0 km/h (0 Bft)
09.12.2015 02:30 -0,2 C -0,5 C 87 % 1032,2 hPa 0,0 mm 0,3 km/h (0 Bft) SO 135 -2,1 C 0,0 km/h (0 Bft)
09.12.2015 02:35 0,1 C -0,3 C 87 % 1032,3 hPa 0,0 mm 0,3 km/h (0 Bft) NO 45 -1,8 C 0,0 km/h (0 Bft)
09.12.2015 02:40 -0,5 C -0,7 C 87 % 1032,3 hPa 0,0 mm 0,3 km/h (0 Bft) N-NO 22 -2,4 C 0,0 km/h (0 Bft)
09.12.2015 02:45 0,1 C -0,3 C 83 % 1032,3 hPa 0,0 mm 0,5 km/h (0 Bft) SO 135 -2,4 C 0,0 km/h (0 Bft)
09.12.2015 02:50 -0,2 C -0,5 C 88 % 1032,3 hPa 0,0 mm 0,3 km/h (0 Bft) NO 45 -1,9 C 0,0 km/h (0 Bft)
09.12.2015 02:55 -0,3 C -0,5 C 88 % 1032,3 hPa 0,0 mm 0,0 km/h (0 Bft) NO 45 -2,0 C 0,0 km/h (0 Bft)
09.12.2015 03:00 -0,3 C -0,6 C 88 % 1032,3 hPa 0,0 mm 0,0 km/h (0 Bft) N 360 -2,0 C 2,8 km/h (1 Bft)
09.12.2015 03:05 -0,1 C -0,5 C 88 % 1032,3 hPa 0,0 mm 0,0 km/h (0 Bft) N-NO 22 -1,8 C 0,0 km/h (0 Bft)
09.12.2015 03:10 -0,3 C -0,7 C 88 % 1032,3 hPa 0,0 mm 0,0 km/h (0 Bft) N-NO 22 -2,0 C 0,0 km/h (0 Bft)
09.12.2015 03:15 -0,3 C -0,7 C 88 % 1032,2 hPa 0,0 mm 0,0 km/h (0 Bft) N-NO 22 -2,0 C 0,0 km/h (0 Bft)
09.12.2015 03:20 -0,6 C -0,9 C 87 % 1032,2 hPa 0,0 mm 0,0 km/h (0 Bft) N-NO 22 -2,5 C 0,0 km/h (0 Bft)
09.12.2015 03:25 -0,5 C -0,8 C 88 % 1032,2 hPa 0,0 mm 0,0 km/h (0 Bft) N-NO 22 -2,2 C 0,0 km/h (0 Bft)
09.12.2015 03:30 -0,6 C -0,9 C 87 % 1032,2 hPa 0,0 mm 0,0 km/h (0 Bft) N-NO 22 -2,5 C 0,0 km/h (0 Bft)
09.12.2015 03:35 -0,4 C -0,7 C 88 % 1032,2 hPa 0,0 mm 0,0 km/h (0 Bft) N-NO 22 -2,1 C 0,0 km/h (0 Bft)
09.12.2015 03:40 -0,6 C -0,9 C 88 % 1032,2 hPa 0,0 mm 0,0 km/h (0 Bft) N-NO 22 -2,3 C 0,0 km/h (0 Bft)
09.12.2015 03:45 -0,3 C -0,7 C 88 % 1032,2 hPa 0,0 mm 0,0 km/h (0 Bft) O 90 -2,0 C 0,0 km/h (0 Bft)
09.12.2015 03:50 -0,4 C -0,7 C 88 % 1032,2 hPa 0,0 mm 0,0 km/h (0 Bft) SO 135 -2,1 C 0,0 km/h (0 Bft)
09.12.2015 03:55 -0,5 C -0,7 C 88 % 1032,2 hPa 0,0 mm 0,0 km/h (0 Bft) SO 135 -2,2 C 0,0 km/h (0 Bft)
09.12.2015 04:00 -0,4 C -0,7 C 88 % 1032,2 hPa 0,0 mm 0,0 km/h (0 Bft) N-NW 337 -2,1 C 0,0 km/h (0 Bft)
09.12.2015 04:05 -0,3 C -0,6 C 88 % 1032,2 hPa 0,0 mm 0,0 km/h (0 Bft) S-SO 157 -2,0 C 0,0 km/h (0 Bft)
09.12.2015 04:10 0,2 C 0,1 C 84 % 1032,2 hPa 0,0 mm 1,0 km/h (0 Bft) N-NW 337 -2,2 C 7,5 km/h (2 Bft)
09.12.2015 04:15 0,1 C 0,0 C 89 % 1032,1 hPa 0,0 mm 1,0 km/h (0 Bft) S-SO 157 -1,5 C 2,8 km/h (1 Bft)
09.12.2015 04:20 1,0 C 1,1 C 84 % 1032,1 hPa 0,0 mm 1,0 km/h (0 Bft) S-SW 202 -1,4 C 8,8 km/h (2 Bft)
09.12.2015 04:25 0,8 C 1,2 C 90 % 1032,1 hPa 0,0 mm 1,6 km/h (1 Bft) NO 45 -0,6 C 0,0 km/h (0 Bft)
09.12.2015 04:30 0,6 C 0,8 C 89 % 1032,1 hPa 0,0 mm 0,8 km/h (0 Bft) NO 45 -1,0 C 0,0 km/h (0 Bft)
09.12.2015 04:35 0,7 C 0,7 C 89 % 1032,0 hPa 0,0 mm 0,0 km/h (0 Bft) O-NO 67 -0,9 C 0,0 km/h (0 Bft)
09.12.2015 04:40 0,7 C 1,0 C 84 % 1032,0 hPa 0,0 mm 0,0 km/h (0 Bft) S-SO 157 -1,7 C 0,0 km/h (0 Bft)
09.12.2015 04:45 0,7 C 1,1 C 89 % 1032,0 hPa 0,0 mm 0,0 km/h (0 Bft) SO 135 -0,9 C 0,0 km/h (0 Bft)
09.12.2015 04:50 1,5 C 1,8 C 84 % 1032,0 hPa 0,0 mm 1,3 km/h (1 Bft) SO 135 -0,9 C 5,4 km/h (1 Bft)
09.12.2015 04:55 2,2 C 2,3 C 84 % 1032,0 hPa 0,0 mm 3,1 km/h (1 Bft) S-SO 157 -0,2 C 3,4 km/h (1 Bft)
09.12.2015 05:00 2,9 C 2,9 C 84 % 1032,0 hPa 0,0 mm 4,1 km/h (1 Bft) W-SW 247 0,5 C 12,2 km/h (2 Bft)
09.12.2015 05:05 2,4 C 3,1 C 88 % 1032,0 hPa 0,0 mm 2,6 km/h (1 Bft) SO 135 0,6 C 0,0 km/h (0 Bft)
09.12.2015 05:10 1,9 C 2,6 C 87 % 1032,0 hPa 0,0 mm 0,3 km/h (0 Bft) O-NO 67 -0,0 C 0,0 km/h (0 Bft)
09.12.2015 05:15 1,7 C 2,3 C 87 % 1032,1 hPa 0,0 mm 0,0 km/h (0 Bft) O-NO 67 -0,2 C 0,0 km/h (0 Bft)
09.12.2015 05:20 1,6 C 2,0 C 86 % 1032,1 hPa 0,0 mm 0,0 km/h (0 Bft) N-NO 22 -0,5 C 0,0 km/h (0 Bft)
09.12.2015 05:25 1,8 C 2,0 C 83 % 1032,1 hPa 0,0 mm 0,0 km/h (0 Bft) O-SO 112 -0,8 C 0,0 km/h (0 Bft)
09.12.2015 05:30 2,0 C 2,1 C 86 % 1032,1 hPa 0,0 mm 0,3 km/h (0 Bft) W-SW 247 -0,1 C 3,4 km/h (1 Bft)
09.12.2015 05:35 1,6 C 2,2 C 86 % 1032,0 hPa 0,0 mm 1,0 km/h (0 Bft) S 180 -0,5 C 7,0 km/h (2 Bft)
09.12.2015 05:40 3,3 C 3,3 C 82 % 1032,0 hPa 0,0 mm 6,7 km/h (2 Bft) O-SO 112 0,5 C 15,5 km/h (3 Bft)
09.12.2015 05:45 3,9 C 3,5 C 85 % 1032,0 hPa 0,0 mm 9,3 km/h (2 Bft) W 270 1,6 C 7,8 km/h (2 Bft)
09.12.2015 05:50 2,0 C 3,3 C 83 % 1032,0 hPa 0,0 mm 4,4 km/h (1 Bft) O-NO 67 -0,6 C 0,0 km/h (0 Bft)
09.12.2015 05:55 1,7 C 2,3 C 84 % 1032,2 hPa 0,0 mm 0,8 km/h (0 Bft) O-NO 67 -0,7 C 0,0 km/h (0 Bft)
09.12.2015 06:00 1,5 C 1,6 C 84 % 1032,2 hPa 0,0 mm 0,0 km/h (0 Bft) O-NO 67 -0,9 C 0,0 km/h (0 Bft)
09.12.2015 06:05 1,4 C 1,4 C 84 % 1032,2 hPa 0,0 mm 0,0 km/h (0 Bft) O 90 -1,0 C 0,0 km/h (0 Bft)
09.12.2015 06:06 2,2 C 2,4 C 82 % 1032,2 hPa 0,0 mm 1,8 km/h (1 Bft) W-SW 247 -0,5 C 9,8 km/h (2 Bft)
09.12.2015 06:09 2,2 C 2,4 C 82 % 1032,2 hPa 0,0 mm 1,8 km/h (1 Bft) W-SW 247 -0,5 C 9,8 km/h (2 Bft)
09.12.2015 06:15 3,0 C 3,2 C 81 % 1032,2 hPa 0,0 mm 4,7 km/h (1 Bft) SW 225 0,1 C 12,4 km/h (3 Bft)
09.12.2015 06:20 2,0 C 2,8 C 83 % 1032,2 hPa 0,0 mm 6,5 km/h (2 Bft) S 180 -0,6 C 10,9 km/h (2 Bft)
09.12.2015 06:25 2,4 C 3,6 C 84 % 1032,2 hPa 0,0 mm 5,7 km/h (1 Bft) O-NO 67 -0,0 C 4,9 km/h (1 Bft)
09.12.2015 06:30 3,3 C 3,7 C 81 % 1032,2 hPa 0,0 mm 6,7 km/h (2 Bft) SW 225 0,4 C 4,9 km/h (1 Bft)
09.12.2015 06:35 3,9 C 4,3 C 81 % 1032,2 hPa 0,0 mm 6,2 km/h (2 Bft) S 180 0,9 C 9,3 km/h (2 Bft)
09.12.2015 06:40 4,4 C 4,5 C 82 % 1032,2 hPa 0,0 mm 6,5 km/h (2 Bft) S-SW 202 1,6 C 7,8 km/h (2 Bft)
09.12.2015 06:45 3,5 C 5,0 C 81 % 1032,2 hPa 0,0 mm 5,2 km/h (1 Bft) N-NW 337 0,6 C 0,0 km/h (0 Bft)
09.12.2015 06:50 2,7 C 4,2 C 81 % 1032,2 hPa 0,0 mm 1,8 km/h (1 Bft) S 180 -0,2 C 5,2 km/h (1 Bft)
09.12.2015 06:55 3,0 C 4,1 C 80 % 1032,1 hPa 0,0 mm 2,1 km/h (1 Bft) NW 315 -0,1 C 6,5 km/h (2 Bft)
09.12.2015 07:00 2,2 C 3,4 C 81 % 1032,1 hPa 0,0 mm 1,8 km/h (1 Bft) O-NO 67 -0,7 C 0,0 km/h (0 Bft)
09.12.2015 07:05 2,2 C 2,8 C 82 % 1032,1 hPa 0,0 mm 0,5 km/h (0 Bft) O-NO 67 -0,5 C 0,0 km/h (0 Bft)
09.12.2015 07:10 2,2 C 2,2 C 82 % 1032,1 hPa 0,0 mm 0,0 km/h (0 Bft) O-NO 67 -0,5 C 0,0 km/h (0 Bft)
09.12.2015 07:15 2,1 C 2,0 C 83 % 1032,0 hPa 0,0 mm 0,0 km/h (0 Bft) O-NO 67 -0,5 C 0,0 km/h (0 Bft)
09.12.2015 07:20 2,1 C 1,9 C 83 % 1032,0 hPa 0,0 mm 0,0 km/h (0 Bft) O-NO 67 -0,5 C 0,0 km/h (0 Bft)
09.12.2015 07:25 2,1 C 1,9 C 83 % 1032,0 hPa 0,0 mm 0,0 km/h (0 Bft) O-NO 67 -0,5 C 0,0 km/h (0 Bft)
09.12.2015 07:30 2,0 C 1,8 C 83 % 1032,0 hPa 0,0 mm 0,0 km/h (0 Bft) O-NO 67 -0,6 C 0,0 km/h (0 Bft)
09.12.2015 07:35 1,9 C 1,7 C 84 % 1032,2 hPa 0,0 mm 0,0 km/h (0 Bft) N-NO 22 -0,5 C 0,0 km/h (0 Bft)
09.12.2015 07:40 1,9 C 1,7 C 84 % 1032,2 hPa 0,0 mm 0,0 km/h (0 Bft) W 270 -0,5 C 0,0 km/h (0 Bft)
09.12.2015 07:45 1,7 C 1,6 C 84 % 1032,2 hPa 0,0 mm 0,0 km/h (0 Bft) W-NW 292 -0,7 C 0,0 km/h (0 Bft)
09.12.2015 07:50 1,6 C 1,5 C 84 % 1032,2 hPa 0,0 mm 0,0 km/h (0 Bft) W-NW 292 -0,8 C 0,0 km/h (0 Bft)
09.12.2015 07:55 1,7 C 1,5 C 85 % 1032,3 hPa 0,0 mm 0,3 km/h (0 Bft) S-SO 157 -0,5 C 3,1 km/h (1 Bft)
09.12.2015 08:00 2,8 C 2,7 C 83 % 1032,3 hPa 0,0 mm 3,1 km/h (1 Bft) SW 225 0,2 C 6,7 km/h (2 Bft)
09.12.2015 08:05 2,6 C 2,7 C 86 % 1032,3 hPa 0,0 mm 3,9 km/h (1 Bft) W 270 0,5 C 0,0 km/h (0 Bft)
09.12.2015 08:10 2,0 C 3,0 C 85 % 1032,3 hPa 0,0 mm 2,1 km/h (1 Bft) W-SW 247 -0,3 C 4,7 km/h (1 Bft)
09.12.2015 08:15 3,0 C 3,6 C 82 % 1032,5 hPa 0,0 mm 2,8 km/h (1 Bft) NW 315 0,2 C 5,7 km/h (1 Bft)
09.12.2015 08:20 4,1 C 4,0 C 86 % 1032,5 hPa 0,7 mm 4,9 km/h (1 Bft) W 270 2,0 C 7,3 km/h (2 Bft)
09.12.2015 08:25 4,1 C 4,0 C 86 % 1032,5 hPa 0,0 mm 4,9 km/h (1 Bft) W-SW 247 2,0 C 3,4 km/h (1 Bft)
09.12.2015 08:30 4,2 C 4,1 C 86 % 1032,5 hPa 0,0 mm 4,1 km/h (1 Bft) NW 315 2,1 C 9,6 km/h (2 Bft)
09.12.2015 08:35 4,2 C 4,2 C 87 % 1033,1 hPa 0,0 mm 4,1 km/h (1 Bft) W-SW 247 2,2 C 0,0 km/h (0 Bft)
09.12.2015 08:40 4,3 C 4,3 C 87 % 1033,1 hPa 0,0 mm 3,9 km/h (1 Bft) SW 225 2,3 C 5,4 km/h (1 Bft)
09.12.2015 08:45 4,3 C 4,3 C 87 % 1033,1 hPa 0,0 mm 2,6 km/h (1 Bft) W 270 2,3 C 4,9 km/h (1 Bft)
09.12.2015 08:50 4,4 C 4,4 C 87 % 1033,1 hPa 0,7 mm 2,3 km/h (1 Bft) W-SW 247 2,4 C 2,8 km/h (1 Bft)
09.12.2015 08:55 4,4 C 4,5 C 87 % 1033,2 hPa 0,0 mm 1,8 km/h (1 Bft) NW 315 2,4 C 2,8 km/h (1 Bft)
09.12.2015 09:00 4,3 C 4,5 C 87 % 1033,2 hPa 0,0 mm 0,3 km/h (0 Bft) W 270 2,3 C 0,0 km/h (0 Bft)
09.12.2015 09:05 4,3 C 4,5 C 87 % 1033,2 hPa 0,0 mm 0,5 km/h (0 Bft) W 270 2,3 C 3,9 km/h (1 Bft)
09.12.2015 09:10 4,4 C 4,6 C 87 % 1033,2 hPa 0,0 mm 0,5 km/h (0 Bft) W 270 2,4 C 0,0 km/h (0 Bft)
09.12.2015 09:15 4,4 C 4,7 C 88 % 1033,5 hPa 0,0 mm 1,6 km/h (1 Bft) W-NW 292 2,6 C 5,7 km/h (1 Bft)
09.12.2015 09:20 4,4 C 4,7 C 88 % 1033,5 hPa 0,7 mm 3,1 km/h (1 Bft) W-SW 247 2,6 C 0,0 km/h (0 Bft)
09.12.2015 09:25 4,7 C 4,8 C 88 % 1033,5 hPa 0,0 mm 3,4 km/h (1 Bft) W-SW 247 2,9 C 8,0 km/h (2 Bft)
09.12.2015 09:30 5,0 C 5,0 C 88 % 1033,5 hPa 0,0 mm 4,1 km/h (1 Bft) W 270 3,2 C 17,3 km/h (3 Bft)
09.12.2015 09:35 5,0 C 4,9 C 88 % 1033,8 hPa 0,0 mm 6,2 km/h (2 Bft) W 270 3,2 C 7,0 km/h (2 Bft)
09.12.2015 09:40 5,1 C 4,9 C 89 % 1033,8 hPa 0,0 mm 6,5 km/h (2 Bft) W-SW 247 3,4 C 8,3 km/h (2 Bft)
09.12.2015 09:45 5,1 C 5,0 C 89 % 1033,8 hPa 0,7 mm 6,0 km/h (2 Bft) W-NW 292 3,4 C 8,3 km/h (2 Bft)
09.12.2015 09:50 5,1 C 4,8 C 89 % 1033,8 hPa 0,0 mm 7,5 km/h (2 Bft) W-SW 247 3,4 C 22,0 km/h (4 Bft)
09.12.2015 09:55 5,1 C 4,8 C 89 % 1034,2 hPa 0,0 mm 8,0 km/h (2 Bft) W 270 3,4 C 9,6 km/h (2 Bft)
09.12.2015 10:00 5,0 C 4,6 C 89 % 1034,2 hPa 0,7 mm 8,5 km/h (2 Bft) W-SW 247 3,3 C 14,5 km/h (3 Bft)
09.12.2015 10:05 5,0 C 4,4 C 89 % 1034,2 hPa 0,0 mm 10,6 km/h (2 Bft) W 270 3,3 C 16,3 km/h (3 Bft)
09.12.2015 10:10 4,9 C 4,2 C 89 % 1034,2 hPa 0,0 mm 11,9 km/h (2 Bft) S-SW 202 3,2 C 30,8 km/h (5 Bft)
09.12.2015 10:15 4,9 C 4,3 C 89 % 1034,6 hPa 0,7 mm 11,1 km/h (2 Bft) W 270 3,2 C 20,7 km/h (4 Bft)
09.12.2015 10:20 4,8 C 4,3 C 89 % 1034,6 hPa 0,0 mm 12,9 km/h (3 Bft) W 270 3,1 C 14,8 km/h (3 Bft)
09.12.2015 10:25 4,7 C 4,2 C 89 % 1034,6 hPa 0,0 mm 13,7 km/h (3 Bft) W 270 3,0 C 17,3 km/h (3 Bft)
09.12.2015 10:30 4,7 C 4,0 C 89 % 1034,6 hPa 0,0 mm 11,1 km/h (2 Bft) W 270 3,0 C 13,2 km/h (3 Bft)
09.12.2015 10:35 4,7 C 4,1 C 89 % 1035,0 hPa 0,0 mm 10,4 km/h (2 Bft) W-NW 292 3,0 C 9,8 km/h (2 Bft)
09.12.2015 10:40 4,7 C 4,1 C 89 % 1035,0 hPa 0,7 mm 9,6 km/h (2 Bft) W-SW 247 3,0 C 33,4 km/h (5 Bft)
09.12.2015 10:45 4,7 C 4,1 C 89 % 1035,0 hPa 0,0 mm 10,6 km/h (2 Bft) SW 225 3,0 C 17,9 km/h (3 Bft)
09.12.2015 10:50 4,7 C 4,1 C 89 % 1035,0 hPa 0,0 mm 10,9 km/h (2 Bft) W-NW 292 3,0 C 4,4 km/h (1 Bft)
09.12.2015 10:55 4,6 C 4,0 C 89 % 1035,3 hPa 0,0 mm 9,6 km/h (2 Bft) W 270 2,9 C 18,4 km/h (3 Bft)
09.12.2015 11:00 4,5 C 3,9 C 89 % 1035,3 hPa 0,0 mm 10,1 km/h (2 Bft) W-NW 292 2,8 C 31,6 km/h (5 Bft)
09.12.2015 11:05 4,4 C 3,9 C 89 % 1035,3 hPa 0,0 mm 12,7 km/h (3 Bft) W 270 2,7 C 17,9 km/h (3 Bft)
09.12.2015 11:10 4,3 C 3,7 C 89 % 1035,3 hPa 0,7 mm 12,7 km/h (3 Bft) W-SW 247 2,7 C 11,1 km/h (2 Bft)
09.12.2015 11:15 4,2 C 3,4 C 89 % 1035,5 hPa 0,0 mm 11,9 km/h (2 Bft) W-SW 247 2,6 C 16,8 km/h (3 Bft)
09.12.2015 11:20 4,0 C 3,3 C 89 % 1035,5 hPa 0,0 mm 10,9 km/h (2 Bft) W-SW 247 2,4 C 20,5 km/h (4 Bft)
09.12.2015 11:25 3,9 C 3,2 C 89 % 1035,5 hPa 0,7 mm 10,6 km/h (2 Bft) W 270 2,3 C 11,1 km/h (2 Bft)
09.12.2015 11:30 3,8 C 3,0 C 89 % 1035,5 hPa 0,0 mm 11,9 km/h (2 Bft) NW 315 2,2 C 6,0 km/h (2 Bft)
09.12.2015 11:35 3,6 C 2,9 C 89 % 1036,1 hPa 0,0 mm 10,9 km/h (2 Bft) W 270 2,0 C 9,6 km/h (2 Bft)
09.12.2015 11:40 3,3 C 2,6 C 88 % 1036,1 hPa 0,0 mm 10,9 km/h (2 Bft) W-NW 292 1,5 C 15,0 km/h (3 Bft)
09.12.2015 11:45 3,1 C 2,5 C 88 % 1036,1 hPa 0,7 mm 13,2 km/h (3 Bft) NW 315 1,3 C 22,5 km/h (4 Bft)
09.12.2015 11:50 2,8 C 1,9 C 88 % 1036,1 hPa 0,0 mm 12,2 km/h (2 Bft) W 270 1,0 C 11,9 km/h (2 Bft)
09.12.2015 11:55 2,6 C 1,8 C 88 % 1036,6 hPa 0,0 mm 10,6 km/h (2 Bft) W 270 0,8 C 10,6 km/h (2 Bft)
09.12.2015 12:00 2,3 C 1,5 C 88 % 1036,6 hPa 0,7 mm 10,9 km/h (2 Bft) W 270 0,5 C 18,9 km/h (3 Bft)
09.12.2015 12:05 2,2 C 1,4 C 88 % 1036,6 hPa 0,0 mm 9,8 km/h (2 Bft) SW 225 0,4 C 16,1 km/h (3 Bft)
09.12.2015 12:06 2,0 C 1,3 C 88 % 1036,6 hPa 0,7 mm 8,5 km/h (2 Bft) W 270 0,2 C 12,7 km/h (3 Bft)
09.12.2015 12:10 2,0 C 1,3 C 88 % 1036,6 hPa 0,0 mm 8,5 km/h (2 Bft) W 270 0,2 C 12,7 km/h (3 Bft)
09.12.2015 12:15 1,9 C 1,2 C 89 % 1036,5 hPa 0,0 mm 8,3 km/h (2 Bft) W-SW 247 0,3 C 15,0 km/h (3 Bft)
09.12.2015 12:20 1,9 C 1,2 C 89 % 1036,5 hPa 0,7 mm 7,8 km/h (2 Bft) W-SW 247 0,3 C 9,6 km/h (2 Bft)
09.12.2015 12:25 1,9 C 1,3 C 89 % 1036,5 hPa 0,0 mm 7,0 km/h (2 Bft) W-SW 247 0,3 C 8,8 km/h (2 Bft)
09.12.2015 12:30 1,9 C 1,5 C 89 % 1036,5 hPa 0,0 mm 5,7 km/h (1 Bft) W 270 0,3 C 9,6 km/h (2 Bft)
09.12.2015 12:35 1,9 C 1,7 C 85 % 1036,7 hPa 0,0 mm 4,9 km/h (1 Bft) W 270 -0,3 C 4,7 km/h (1 Bft)
09.12.2015 12:40 2,0 C 1,6 C 89 % 1036,7 hPa 0,0 mm 6,2 km/h (2 Bft) NW 315 0,4 C 7,8 km/h (2 Bft)
09.12.2015 12:45 2,0 C 1,5 C 89 % 1036,7 hPa 0,0 mm 6,7 km/h (2 Bft) W-SW 247 0,4 C 0,0 km/h (0 Bft)
09.12.2015 12:50 2,1 C 1,9 C 86 % 1036,7 hPa 0,0 mm 5,4 km/h (1 Bft) W-SW 247 0,0 C 5,4 km/h (1 Bft)
09.12.2015 12:55 2,1 C 1,9 C 86 % 1036,5 hPa 0,0 mm 4,9 km/h (1 Bft) SW 225 0,0 C 5,2 km/h (1 Bft)
09.12.2015 13:00 2,2 C 2,0 C 86 % 1036,5 hPa 0,0 mm 5,7 km/h (1 Bft) W-SW 247 0,1 C 6,5 km/h (2 Bft)
09.12.2015 13:05 2,3 C 2,1 C 86 % 1036,5 hPa 0,7 mm 5,4 km/h (1 Bft) SW 225 0,2 C 5,4 km/h (1 Bft)
09.12.2015 13:10 2,4 C 2,2 C 86 % 1036,5 hPa 0,0 mm 4,9 km/h (1 Bft) SW 225 0,3 C 8,5 km/h (2 Bft)
09.12.2015 13:15 2,7 C 2,5 C 91 % 1036,5 hPa 0,0 mm 4,7 km/h (1 Bft) W-SW 247 1,4 C 6,2 km/h (2 Bft)
09.12.2015 13:20 2,8 C 2,6 C 91 % 1036,5 hPa 0,0 mm 4,7 km/h (1 Bft) W 270 1,5 C 0,0 km/h (0 Bft)
09.12.2015 13:25 2,8 C 2,7 C 91 % 1036,5 hPa 0,0 mm 3,1 km/h (1 Bft) W-SW 247 1,5 C 0,0 km/h (0 Bft)
09.12.2015 13:30 2,9 C 2,8 C 91 % 1036,5 hPa 0,0 mm 3,4 km/h (1 Bft) W-SW 247 1,6 C 9,8 km/h (2 Bft)
09.12.2015 13:35 3,0 C 2,8 C 90 % 1036,7 hPa 0,0 mm 4,7 km/h (1 Bft) W 270 1,5 C 3,6 km/h (1 Bft)
09.12.2015 13:40 3,1 C 3,0 C 86 % 1036,7 hPa 0,0 mm 5,7 km/h (1 Bft) W 270 1,0 C 6,2 km/h (2 Bft)
09.12.2015 13:45 3,3 C 3,3 C 86 % 1036,7 hPa 0,0 mm 4,4 km/h (1 Bft) SW 225 1,2 C 2,8 km/h (1 Bft)
09.12.2015 13:50 3,4 C 3,5 C 86 % 1036,7 hPa 0,0 mm 4,1 km/h (1 Bft) SW 225 1,3 C 4,1 km/h (1 Bft)
09.12.2015 13:55 3,4 C 3,5 C 86 % 1036,4 hPa 0,0 mm 3,6 km/h (1 Bft) SW 225 1,3 C 3,6 km/h (1 Bft)
09.12.2015 14:00 3,6 C 3,6 C 90 % 1036,4 hPa 0,0 mm 4,4 km/h (1 Bft) S 180 2,1 C 8,0 km/h (2 Bft)
09.12.2015 14:05 3,6 C 3,4 C 90 % 1036,4 hPa 0,0 mm 5,2 km/h (1 Bft) S-SW 202 2,1 C 5,2 km/h (1 Bft)
09.12.2015 14:10 3,6 C 3,3 C 90 % 1036,4 hPa 0,0 mm 6,5 km/h (2 Bft) S-SW 202 2,1 C 11,1 km/h (2 Bft)
09.12.2015 14:15 3,7 C 3,2 C 90 % 1036,5 hPa 0,0 mm 7,5 km/h (2 Bft) SW 225 2,2 C 12,9 km/h (3 Bft)
09.12.2015 14:20 3,8 C 3,2 C 90 % 1036,5 hPa 0,0 mm 8,3 km/h (2 Bft) W 270 2,3 C 7,0 km/h (2 Bft)
09.12.2015 14:25 3,8 C 3,3 C 90 % 1036,5 hPa 0,0 mm 7,3 km/h (2 Bft) S 180 2,3 C 8,3 km/h (2 Bft)
09.12.2015 14:30 3,8 C 3,4 C 89 % 1036,5 hPa 0,0 mm 6,5 km/h (2 Bft) S 180 2,2 C 7,8 km/h (2 Bft)
09.12.2015 14:35 3,9 C 3,5 C 89 % 1036,7 hPa 0,0 mm 6,5 km/h (2 Bft) W-SW 247 2,3 C 9,3 km/h (2 Bft)
09.12.2015 14:40 3,8 C 3,6 C 89 % 1036,7 hPa 0,0 mm 4,9 km/h (1 Bft) W-SW 247 2,2 C 4,7 km/h (1 Bft)
09.12.2015 14:45 3,8 C 3,7 C 89 % 1036,7 hPa 0,0 mm 3,9 km/h (1 Bft) W-SW 247 2,2 C 0,0 km/h (0 Bft)
09.12.2015 14:50 3,8 C 3,7 C 89 % 1036,7 hPa 0,0 mm 3,6 km/h (1 Bft) W-SW 247 2,2 C 4,7 km/h (1 Bft)
09.12.2015 14:55 3,9 C 3,7 C 89 % 1036,8 hPa 0,0 mm 4,1 km/h (1 Bft) SW 225 2,3 C 10,6 km/h (2 Bft)
09.12.2015 15:00 4,0 C 3,8 C 89 % 1036,8 hPa 0,0 mm 3,9 km/h (1 Bft) SW 225 2,4 C 4,1 km/h (1 Bft)
09.12.2015 15:05 4,1 C 3,9 C 89 % 1036,8 hPa 0,0 mm 3,6 km/h (1 Bft) S-SW 202 2,5 C 6,2 km/h (2 Bft)
09.12.2015 15:10 4,0 C 3,8 C 89 % 1036,8 hPa 0,0 mm 4,4 km/h (1 Bft) SW 225 2,4 C 7,8 km/h (2 Bft)
09.12.2015 15:15 3,9 C 3,7 C 89 % 1037,0 hPa 0,0 mm 4,7 km/h (1 Bft) SW 225 2,3 C 5,4 km/h (1 Bft)
09.12.2015 15:20 3,9 C 3,7 C 89 % 1037,0 hPa 0,0 mm 3,4 km/h (1 Bft) W-SW 247 2,3 C 2,6 km/h (1 Bft)
09.12.2015 15:25 3,8 C 3,7 C 89 % 1037,0 hPa 0,0 mm 2,1 km/h (1 Bft) SW 225 2,2 C 2,6 km/h (1 Bft)
09.12.2015 15:30 3,8 C 3,6 C 89 % 1037,0 hPa 0,0 mm 2,6 km/h (1 Bft) W-SW 247 2,2 C 6,5 km/h (2 Bft)
09.12.2015 15:35 3,8 C 3,6 C 89 % 1036,9 hPa 0,0 mm 4,4 km/h (1 Bft) SW 225 2,2 C 5,2 km/h (1 Bft)
09.12.2015 15:40 3,9 C 3,5 C 89 % 1036,9 hPa 0,0 mm 5,7 km/h (1 Bft) SW 225 2,3 C 6,7 km/h (2 Bft)
09.12.2015 15:45 3,9 C 3,5 C 89 % 1036,9 hPa 0,0 mm 6,2 km/h (2 Bft) SW 225 2,3 C 8,8 km/h (2 Bft)
09.12.2015 15:50 3,8 C 3,4 C 88 % 1036,9 hPa 0,0 mm 6,5 km/h (2 Bft) S-SW 202 2,0 C 7,8 km/h (2 Bft)
09.12.2015 15:55 3,8 C 3,5 C 88 % 1037,2 hPa 0,0 mm 5,7 km/h (1 Bft) W-SW 247 2,0 C 3,9 km/h (1 Bft)
09.12.2015 16:00 3,8 C 3,5 C 88 % 1037,2 hPa 0,0 mm 5,2 km/h (1 Bft) W-SW 247 2,0 C 7,0 km/h (2 Bft)
09.12.2015 16:05 3,7 C 3,4 C 88 % 1037,2 hPa 0,0 mm 4,7 km/h (1 Bft) W-SW 247 1,9 C 7,3 km/h (2 Bft)
09.12.2015 16:10 3,7 C 3,4 C 88 % 1037,2 hPa 0,0 mm 4,9 km/h (1 Bft) SW 225 1,9 C 5,4 km/h (1 Bft)
09.12.2015 16:15 3,6 C 3,2 C 88 % 1037,3 hPa 0,0 mm 5,4 km/h (1 Bft) W 270 1,8 C 6,5 km/h (2 Bft)
09.12.2015 16:20 3,6 C 3,0 C 87 % 1037,3 hPa 0,0 mm 6,5 km/h (2 Bft) SW 225 1,6 C 7,8 km/h (2 Bft)
09.12.2015 16:25 3,5 C 2,9 C 87 % 1037,3 hPa 0,0 mm 7,0 km/h (2 Bft) SW 225 1,5 C 7,3 km/h (2 Bft)
09.12.2015 16:30 3,4 C 3,1 C 87 % 1037,3 hPa 0,0 mm 4,7 km/h (1 Bft) NW 315 1,4 C 4,4 km/h (1 Bft)
09.12.2015 16:35 3,3 C 3,1 C 87 % 1037,5 hPa 0,0 mm 2,6 km/h (1 Bft) NW 315 1,3 C 3,9 km/h (1 Bft)
09.12.2015 16:40 3,1 C 2,9 C 87 % 1037,5 hPa 0,0 mm 1,6 km/h (1 Bft) NW 315 1,2 C 7,3 km/h (2 Bft)
09.12.2015 16:45 3,2 C 3,0 C 87 % 1037,5 hPa 0,0 mm 1,8 km/h (1 Bft) W 270 1,2 C 0,0 km/h (0 Bft)
09.12.2015 16:50 3,1 C 2,9 C 87 % 1037,5 hPa 0,0 mm 3,1 km/h (1 Bft) NW 315 1,2 C 4,9 km/h (1 Bft)
09.12.2015 16:55 3,1 C 2,9 C 87 % 1037,8 hPa 0,0 mm 3,4 km/h (1 Bft) NW 315 1,2 C 10,6 km/h (2 Bft)
09.12.2015 17:00 3,1 C 2,9 C 87 % 1037,8 hPa 0,0 mm 4,1 km/h (1 Bft) SW 225 1,2 C 7,3 km/h (2 Bft)
09.12.2015 17:05 3,0 C 2,8 C 87 % 1037,8 hPa 0,0 mm 3,9 km/h (1 Bft) W-SW 247 1,1 C 0,0 km/h (0 Bft)
09.12.2015 17:10 2,9 C 2,7 C 88 % 1037,8 hPa 0,0 mm 2,8 km/h (1 Bft) SW 225 1,1 C 3,9 km/h (1 Bft)
09.12.2015 17:15 2,9 C 2,7 C 88 % 1037,9 hPa 0,0 mm 3,1 km/h (1 Bft) W 270 1,1 C 3,1 km/h (1 Bft)
09.12.2015 17:20 2,9 C 2,7 C 88 % 1037,9 hPa 0,0 mm 3,9 km/h (1 Bft) W-SW 247 1,1 C 7,0 km/h (2 Bft)
09.12.2015 17:25 3,0 C 2,6 C 88 % 1037,9 hPa 0,0 mm 5,4 km/h (1 Bft) S-SW 202 1,2 C 9,6 km/h (2 Bft)
09.12.2015 17:30 2,9 C 2,4 C 88 % 1037,9 hPa 0,0 mm 6,5 km/h (2 Bft) S 180 1,1 C 8,0 km/h (2 Bft)
09.12.2015 17:35 2,8 C 2,3 C 88 % 1038,1 hPa 0,0 mm 5,7 km/h (1 Bft) W-SW 247 1,0 C 5,7 km/h (1 Bft)
09.12.2015 17:40 2,7 C 2,2 C 88 % 1038,1 hPa 0,0 mm 5,7 km/h (1 Bft) S 180 0,9 C 6,7 km/h (2 Bft)
09.12.2015 17:45 2,7 C 2,3 C 88 % 1038,1 hPa 0,0 mm 5,2 km/h (1 Bft) W-SW 247 0,9 C 5,4 km/h (1 Bft)
09.12.2015 17:50 2,6 C 2,3 C 88 % 1038,1 hPa 0,0 mm 3,4 km/h (1 Bft) W-SW 247 0,8 C 9,1 km/h (2 Bft)
09.12.2015 17:55 2,5 C 2,3 C 88 % 1038,2 hPa 0,0 mm 3,4 km/h (1 Bft) W-SW 247 0,7 C 7,8 km/h (2 Bft)
09.12.2015 18:00 2,5 C 2,1 C 88 % 1038,2 hPa 0,0 mm 5,2 km/h (1 Bft) S-SW 202 0,7 C 3,6 km/h (1 Bft)
09.12.2015 18:05 2,4 C 2,2 C 88 % 1038,2 hPa 0,0 mm 4,4 km/h (1 Bft) S 180 0,6 C 5,2 km/h (1 Bft)
09.12.2015 18:06 2,4 C 2,2 C 88 % 1038,2 hPa 0,0 mm 3,6 km/h (1 Bft) W-SW 247 0,6 C 7,0 km/h (2 Bft)
09.12.2015 18:11 2,4 C 2,2 C 88 % 1038,2 hPa 0,0 mm 3,6 km/h (1 Bft) W-SW 247 0,6 C 7,0 km/h (2 Bft)
09.12.2015 18:15 2,6 C 2,3 C 88 % 1038,3 hPa 0,0 mm 4,9 km/h (1 Bft) S-SW 202 0,8 C 7,5 km/h (2 Bft)
09.12.2015 18:20 2,6 C 2,2 C 88 % 1038,3 hPa 0,0 mm 6,0 km/h (2 Bft) SW 225 0,8 C 5,7 km/h (1 Bft)
09.12.2015 18:25 2,5 C 2,3 C 88 % 1038,3 hPa 0,0 mm 4,9 km/h (1 Bft) SW 225 0,7 C 7,3 km/h (2 Bft)
09.12.2015 18:30 2,5 C 2,4 C 88 % 1038,3 hPa 0,0 mm 4,1 km/h (1 Bft) S-SW 202 0,7 C 8,0 km/h (2 Bft)
09.12.2015 18:35 2,5 C 2,3 C 88 % 1038,7 hPa 0,0 mm 4,9 km/h (1 Bft) W-SW 247 0,7 C 6,2 km/h (2 Bft)
09.12.2015 18:40 2,5 C 2,4 C 88 % 1038,7 hPa 0,0 mm 4,1 km/h (1 Bft) S 180 0,7 C 3,9 km/h (1 Bft)
09.12.2015 18:45 2,5 C 2,4 C 89 % 1038,7 hPa 0,0 mm 4,1 km/h (1 Bft) S-SW 202 0,9 C 8,5 km/h (2 Bft)
09.12.2015 18:50 2,4 C 2,2 C 89 % 1038,7 hPa 0,0 mm 5,2 km/h (1 Bft) S 180 0,8 C 9,1 km/h (2 Bft)
09.12.2015 18:55 2,4 C 2,1 C 89 % 1038,6 hPa 0,0 mm 5,2 km/h (1 Bft) S 180 0,8 C 5,7 km/h (1 Bft)
09.12.2015 19:00 2,3 C 2,2 C 89 % 1038,6 hPa 0,0 mm 4,1 km/h (1 Bft) SW 225 0,7 C 4,4 km/h (1 Bft)
09.12.2015 19:05 2,3 C 2,1 C 89 % 1038,6 hPa 0,0 mm 4,4 km/h (1 Bft) SW 225 0,7 C 4,9 km/h (1 Bft)
09.12.2015 19:10 2,3 C 2,2 C 89 % 1038,6 hPa 0,0 mm 4,4 km/h (1 Bft) S 180 0,7 C 2,6 km/h (1 Bft)
09.12.2015 19:15 2,4 C 2,3 C 89 % 1038,6 hPa 0,0 mm 3,9 km/h (1 Bft) SW 225 0,8 C 3,6 km/h (1 Bft)
09.12.2015 19:20 2,4 C 2,2 C 89 % 1038,6 hPa 0,0 mm 4,4 km/h (1 Bft) S 180 0,8 C 8,5 km/h (2 Bft)
09.12.2015 19:25 2,5 C 2,3 C 89 % 1038,6 hPa 0,0 mm 4,7 km/h (1 Bft) S 180 0,9 C 4,7 km/h (1 Bft)
09.12.2015 19:30 2,5 C 2,4 C 89 % 1038,6 hPa 0,0 mm 4,7 km/h (1 Bft) S 180 0,9 C 6,7 km/h (2 Bft)
09.12.2015 19:35 2,6 C 2,5 C 89 % 1038,7 hPa 0,0 mm 4,4 km/h (1 Bft) SW 225 1,0 C 0,0 km/h (0 Bft)
09.12.2015 19:40 2,2 C 2,2 C 89 % 1038,7 hPa 0,0 mm 4,4 km/h (1 Bft) W-NW 292 0,6 C 2,8 km/h (1 Bft)
09.12.2015 19:45 2,2 C 2,1 C 89 % 1038,7 hPa 0,0 mm 2,8 km/h (1 Bft) N-NO 22 0,6 C 6,7 km/h (2 Bft)
09.12.2015 19:50 2,2 C 2,1 C 89 % 1038,7 hPa 0,0 mm 2,8 km/h (1 Bft) NW 315 0,6 C 5,7 km/h (1 Bft)
09.12.2015 19:55 2,1 C 2,0 C 89 % 1039,0 hPa 0,0 mm 3,6 km/h (1 Bft) N-NO 22 0,5 C 5,4 km/h (1 Bft)
09.12.2015 20:00 2,0 C 1,9 C 89 % 1039,0 hPa 0,0 mm 2,8 km/h (1 Bft) N-NO 22 0,4 C 0,0 km/h (0 Bft)
09.12.2015 20:05 2,0 C 1,9 C 89 % 1039,0 hPa 0,0 mm 1,6 km/h (1 Bft) O-SO 112 0,4 C 0,0 km/h (0 Bft)
09.12.2015 20:10 1,9 C 1,8 C 89 % 1039,0 hPa 0,0 mm 0,3 km/h (0 Bft) N-NW 337 0,3 C 2,6 km/h (1 Bft)
09.12.2015 20:15 1,8 C 1,7 C 89 % 1039,1 hPa 0,0 mm 0,5 km/h (0 Bft) NW 315 0,2 C 2,6 km/h (1 Bft)
09.12.2015 20:20 1,8 C 1,6 C 89 % 1039,1 hPa 0,0 mm 0,5 km/h (0 Bft) W-SW 247 0,2 C 0,0 km/h (0 Bft)
09.12.2015 20:25 1,8 C 1,6 C 89 % 1039,1 hPa 0,0 mm 0,3 km/h (0 Bft) S-SO 157 0,2 C 0,0 km/h (0 Bft)
09.12.2015 20:30 1,8 C 1,6 C 90 % 1039,1 hPa 0,0 mm 1,0 km/h (0 Bft) SW 225 0,3 C 6,2 km/h (2 Bft)
09.12.2015 20:35 1,8 C 1,6 C 90 % 1039,7 hPa 0,0 mm 1,6 km/h (1 Bft) SW 225 0,3 C 0,0 km/h (0 Bft)
09.12.2015 20:40 1,9 C 1,7 C 90 % 1039,7 hPa 0,0 mm 2,1 km/h (1 Bft) SW 225 0,4 C 0,0 km/h (0 Bft)
09.12.2015 20:45 1,9 C 1,7 C 90 % 1039,7 hPa 0,0 mm 2,6 km/h (1 Bft) SW 225 0,4 C 0,0 km/h (0 Bft)
09.12.2015 20:50 2,0 C 1,8 C 89 % 1039,7 hPa 0,0 mm 3,4 km/h (1 Bft) NW 315 0,4 C 10,9 km/h (2 Bft)
09.12.2015 20:55 1,9 C 1,7 C 90 % 1039,8 hPa 0,0 mm 3,9 km/h (1 Bft) W-NW 292 0,4 C 0,0 km/h (0 Bft)
09.12.2015 21:00 1,8 C 1,6 C 90 % 1039,8 hPa 0,0 mm 3,1 km/h (1 Bft) S 180 0,3 C 0,0 km/h (0 Bft)
09.12.2015 21:05 1,7 C 1,4 C 90 % 1039,8 hPa 0,0 mm 1,8 km/h (1 Bft) SO 135 0,2 C 3,9 km/h (1 Bft)
09.12.2015 21:10 1,5 C 1,2 C 90 % 1039,8 hPa 0,0 mm 2,6 km/h (1 Bft) S 180 0,0 C 3,9 km/h (1 Bft)
09.12.2015 21:15 1,5 C 1,2 C 90 % 1039,8 hPa 0,0 mm 1,8 km/h (1 Bft) S-SO 157 0,0 C 0,0 km/h (0 Bft)
09.12.2015 21:20 1,4 C 1,1 C 90 % 1039,8 hPa 0,0 mm 0,0 km/h (0 Bft) SO 135 -0,1 C 0,0 km/h (0 Bft)
09.12.2015 21:25 1,4 C 1,1 C 90 % 1039,8 hPa 0,0 mm 0,0 km/h (0 Bft) SO 135 -0,1 C 0,0 km/h (0 Bft)
09.12.2015 21:30 1,6 C 1,3 C 90 % 1039,8 hPa 0,0 mm 3,6 km/h (1 Bft) S-SW 202 0,1 C 8,3 km/h (2 Bft)
09.12.2015 21:35 1,7 C 1,1 C 90 % 1039,4 hPa 0,0 mm 6,5 km/h (2 Bft) S 180 0,2 C 6,7 km/h (2 Bft)
09.12.2015 21:40 1,8 C 1,1 C 91 % 1039,4 hPa 0,0 mm 7,5 km/h (2 Bft) W-SW 247 0,5 C 5,4 km/h (1 Bft)
09.12.2015 21:45 1,9 C 1,1 C 91 % 1039,4 hPa 0,0 mm 8,3 km/h (2 Bft) SW 225 0,6 C 7,8 km/h (2 Bft)
09.12.2015 21:50 1,8 C 1,1 C 91 % 1039,4 hPa 0,0 mm 8,5 km/h (2 Bft) SW 225 0,5 C 10,6 km/h (2 Bft)
09.12.2015 21:55 1,9 C 1,3 C 90 % 1039,2 hPa 0,0 mm 7,5 km/h (2 Bft) S 180 0,4 C 6,0 km/h (2 Bft)
09.12.2015 22:00 1,8 C 1,3 C 90 % 1039,2 hPa 0,0 mm 6,7 km/h (2 Bft) S 180 0,3 C 5,2 km/h (1 Bft)
09.12.2015 22:05 1,8 C 1,5 C 90 % 1039,2 hPa 0,0 mm 5,2 km/h (1 Bft) SW 225 0,3 C 6,0 km/h (2 Bft)
09.12.2015 22:10 1,8 C 1,6 C 90 % 1039,2 hPa 0,0 mm 2,1 km/h (1 Bft) SW 225 0,3 C 0,0 km/h (0 Bft)
09.12.2015 22:15 1,7 C 1,5 C 90 % 1039,2 hPa 0,0 mm 0,8 km/h (0 Bft) S-SO 157 0,2 C 0,0 km/h (0 Bft)
09.12.2015 22:20 1,6 C 1,4 C 90 % 1039,2 hPa 0,0 mm 0,0 km/h (0 Bft) SW 225 0,1 C 0,0 km/h (0 Bft)
09.12.2015 22:25 1,6 C 1,4 C 90 % 1039,2 hPa 0,0 mm 0,3 km/h (0 Bft) S 180 0,1 C 0,0 km/h (0 Bft)
09.12.2015 22:30 1,5 C 1,3 C 90 % 1039,2 hPa 0,0 mm 0,3 km/h (0 Bft) S-SO 157 0,0 C 0,0 km/h (0 Bft)
09.12.2015 22:35 1,5 C 1,3 C 90 % 1038,8 hPa 0,0 mm 0,3 km/h (0 Bft) S-SO 157 0,0 C 0,0 km/h (0 Bft)
09.12.2015 22:40 1,3 C 1,1 C 90 % 1038,8 hPa 0,0 mm 0,0 km/h (0 Bft) S 180 -0,2 C 0,0 km/h (0 Bft)
09.12.2015 22:45 1,2 C 1,0 C 90 % 1038,8 hPa 0,0 mm 0,0 km/h (0 Bft) S-SO 157 -0,3 C 0,0 km/h (0 Bft)
09.12.2015 22:50 1,1 C 0,7 C 90 % 1038,8 hPa 0,0 mm 0,0 km/h (0 Bft) S-SO 157 -0,4 C 0,0 km/h (0 Bft)
09.12.2015 22:55 1,0 C 0,5 C 90 % 1038,8 hPa 0,0 mm 0,0 km/h (0 Bft) S-SO 157 -0,5 C 0,0 km/h (0 Bft)
09.12.2015 23:00 0,8 C 0,3 C 90 % 1038,8 hPa 0,0 mm 0,0 km/h (0 Bft) S-SO 157 -0,6 C 0,0 km/h (0 Bft)
09.12.2015 23:05 0,4 C -0,1 C 90 % 1038,8 hPa 0,0 mm 0,0 km/h (0 Bft) S-SO 157 -1,0 C 0,0 km/h (0 Bft)
09.12.2015 23:10 0,5 C -0,1 C 90 % 1038,8 hPa 0,0 mm 0,0 km/h (0 Bft) S-SO 157 -0,9 C 0,0 km/h (0 Bft)
09.12.2015 23:15 0,5 C -0,2 C 90 % 1038,6 hPa 0,0 mm 0,0 km/h (0 Bft) S-SO 157 -0,9 C 0,0 km/h (0 Bft)
09.12.2015 23:20 0,1 C -0,5 C 90 % 1038,6 hPa 0,0 mm 0,0 km/h (0 Bft) S-SO 157 -1,3 C 0,0 km/h (0 Bft)
09.12.2015 23:25 -0,2 C -0,7 C 90 % 1038,6 hPa 0,0 mm 0,0 km/h (0 Bft) S-SO 157 -1,6 C 0,0 km/h (0 Bft)
09.12.2015 23:30 -0,2 C -0,8 C 90 % 1038,6 hPa 0,0 mm 0,0 km/h (0 Bft) S-SO 157 -1,6 C 0,0 km/h (0 Bft)
09.12.2015 23:35 -0,2 C -0,8 C 90 % 1038,6 hPa 0,0 mm 0,0 km/h (0 Bft) S-SO 157 -1,6 C 0,0 km/h (0 Bft)
09.12.2015 23:40 -0,5 C -1,1 C 90 % 1038,6 hPa 0,0 mm 0,0 km/h (0 Bft) S-SO 157 -1,9 C 0,0 km/h (0 Bft)
09.12.2015 23:45 -0,7 C -1,3 C 90 % 1038,6 hPa 0,0 mm 0,0 km/h (0 Bft) S-SO 157 -2,1 C 0,0 km/h (0 Bft)
09.12.2015 23:50 -1,0 C -1,4 C 90 % 1038,6 hPa 0,0 mm 0,0 km/h (0 Bft) S-SO 157 -2,4 C 0,0 km/h (0 Bft)
09.12.2015 23:55 -0,8 C -1,3 C 90 % 1038,7 hPa 0,0 mm 0,0 km/h (0 Bft) S 180 -2,2 C 0,0 km/h (0 Bft)
_ Min-Zeit 23:50 23:50 00:25 07:30 - 23:55 - - 01:55 23:55
Minimum _ -1,0 C -1,4 C 79 % 1032,0 hPa - 0,0 km/h (0 Bft) - - -3,2 C 0,0 km/h (0 Bft)
_ Max-Zeit 09:55 09:45 21:50 21:30 13:05 10:25 - - 09:55 10:40
Maximum _ 5,1 C 5,0 C 91 % 1039,8 hPa 0,7 mm 13,7 km/h
W (3 Bft)
- - 3,4 C 33,4 km/h
W-SW (5 Bft)
Durchschnitt _ 2,2 C 2,0 C 87 % 1035,4 hPa #9,6 mm 3,5 km/h (1 Bft) W-SW - 0,3 C 4,9 km/h (1 Bft)